KAP3181 KMVY-KBOS

Flight info

Callsign KAP3181
Flight time 0h 20m
Altitude 9000
Route MVY MVY017 FREDO/N0235F080
Aircraft C402/L-SDFR/C

Departure

Time 2026-04-19 03:53
Airport Martha's Vineyard Airport (KMVY)

Arrival

Time 2026-04-19 04:13
Airport Boston Logan International Airport (KBOS)
Time Latitude Longitude Altitude Speed Heading
2026-04-19 03:39 41.38964 -70.61286 62 ft 0 kts 219°
2026-04-19 03:47 41.38950 -70.61300 58 ft 10 kts 219°
2026-04-19 03:47 41.38874 -70.61438 61 ft 25 kts 243°
2026-04-19 03:48 41.38772 -70.61627 60 ft 20 kts 223°
2026-04-19 03:48 41.38653 -70.61763 57 ft 18 kts 220°
2026-04-19 03:48 41.38614 -70.61843 63 ft 9 kts 297°
2026-04-19 03:48 41.38634 -70.61870 61 ft 0 kts 311°
2026-04-19 03:49 41.38644 -70.61886 63 ft 6 kts 309°
2026-04-19 03:49 41.38686 -70.61910 60 ft 7 kts 34°
2026-04-19 03:50 41.38742 -70.61854 61 ft 14 kts 36°
2026-04-19 03:50 41.38764 -70.61831 63 ft 0 kts 42°
2026-04-19 03:51 41.38778 -70.61814 64 ft 17 kts 40°
2026-04-19 03:51 41.39016 -70.61543 63 ft 71 kts 40°
2026-04-19 03:52 41.39453 -70.61075 140 ft 81 kts 35°
2026-04-19 03:52 41.39871 -70.60618 305 ft 76 kts 33°
2026-04-19 03:52 41.40370 -70.60466 371 ft 84 kts 348°
2026-04-19 03:52 41.40976 -70.60687 456 ft 100 kts 343°
2026-04-19 03:53 41.41733 -70.61001 641 ft 121 kts 356°
2026-04-19 03:53 41.42615 -70.61113 947 ft 135 kts 358°
2026-04-19 03:53 41.43600 -70.61165 1224 ft 147 kts
2026-04-19 03:53 41.44647 -70.61245 1550 ft 153 kts 359°
2026-04-19 03:54 41.45716 -70.61489 1906 ft 157 kts 348°
2026-04-19 03:54 41.46756 -70.61718 2434 ft 149 kts 357°
2026-04-19 03:54 41.47767 -70.61735 2861 ft 148 kts
2026-04-19 03:54 41.48776 -70.61601 3332 ft 145 kts
2026-04-19 03:55 41.49451 -70.61493 3548 ft 150 kts
2026-04-19 03:55 41.50527 -70.61284 3792 ft 163 kts
2026-04-19 03:55 41.51706 -70.61193 4051 ft 169 kts 359°
2026-04-19 03:55 41.52877 -70.61000 4335 ft 178 kts 17°
2026-04-19 03:56 41.54138 -70.60576 4244 ft 201 kts 360°
2026-04-19 03:56 41.55597 -70.60803 4170 ft 215 kts 355°
2026-04-19 03:56 41.57119 -70.60806 4145 ft 221 kts
2026-04-19 03:56 41.58669 -70.60649 4136 ft 225 kts
2026-04-19 03:57 41.60237 -70.60506 4139 ft 227 kts
2026-04-19 03:57 41.61813 -70.60391 4136 ft 227 kts
2026-04-19 03:57 41.63393 -70.60277 4136 ft 228 kts
2026-04-19 03:57 41.64976 -70.60157 4137 ft 228 kts
2026-04-19 03:58 41.66560 -70.60037 4152 ft 227 kts
2026-04-19 03:58 41.68129 -70.59919 4233 ft 225 kts
2026-04-19 03:58 41.69685 -70.59801 4309 ft 224 kts
2026-04-19 03:58 41.71236 -70.59685 4379 ft 223 kts
2026-04-19 03:59 41.72789 -70.59567 4447 ft 223 kts
2026-04-19 03:59 41.74337 -70.59450 4514 ft 223 kts
2026-04-19 03:59 41.75889 -70.59333 4580 ft 223 kts
2026-04-19 03:59 41.77445 -70.59215 4643 ft 224 kts
2026-04-19 04:00 41.79004 -70.59097 4710 ft 225 kts
2026-04-19 04:00 41.80569 -70.58978 4778 ft 226 kts
2026-04-19 04:00 41.82136 -70.58859 4846 ft 226 kts
2026-04-19 04:00 41.83709 -70.58740 4905 ft 227 kts
2026-04-19 04:01 41.85249 -70.59097 4890 ft 229 kts 332°
2026-04-19 04:01 41.87526 -70.62009 4949 ft 226 kts 309°
2026-04-19 04:01 41.88579 -70.63579 4991 ft 226 kts 311°
2026-04-19 04:02 41.89651 -70.65126 5021 ft 226 kts 311°
2026-04-19 04:02 41.90722 -70.66671 5054 ft 226 kts 311°
2026-04-19 04:02 41.91791 -70.68220 5088 ft 226 kts 311°
2026-04-19 04:02 41.92859 -70.69768 5123 ft 226 kts 311°
2026-04-19 04:03 41.93926 -70.71316 5156 ft 226 kts 311°
2026-04-19 04:03 41.94993 -70.72865 5149 ft 226 kts 310°
2026-04-19 04:03 41.96074 -70.74434 5180 ft 226 kts 310°
2026-04-19 04:03 41.97140 -70.75983 5208 ft 226 kts 311°
2026-04-19 04:04 41.98204 -70.77531 5238 ft 225 kts 311°
2026-04-19 04:04 41.99269 -70.79078 5260 ft 226 kts 311°
2026-04-19 04:04 42.00340 -70.80638 5245 ft 228 kts 310°
2026-04-19 04:04 42.01420 -70.82210 5238 ft 229 kts 310°
2026-04-19 04:05 42.02489 -70.83766 5215 ft 222 kts 310°
2026-04-19 04:05 42.03522 -70.85273 5183 ft 217 kts 310°
2026-04-19 04:05 42.04536 -70.86754 5124 ft 214 kts 310°
2026-04-19 04:05 42.05540 -70.88218 5072 ft 212 kts 310°
2026-04-19 04:06 42.06528 -70.89662 5006 ft 209 kts 310°
2026-04-19 04:06 42.07513 -70.91101 4917 ft 209 kts 310°
2026-04-19 04:06 42.08497 -70.92538 4813 ft 209 kts 310°
2026-04-19 04:06 42.09484 -70.93981 4660 ft 211 kts 310°
2026-04-19 04:07 42.10482 -70.95442 4503 ft 212 kts 310°
2026-04-19 04:07 42.11483 -70.96905 4350 ft 213 kts 310°
2026-04-19 04:07 42.12485 -70.98372 4205 ft 213 kts 310°
2026-04-19 04:07 42.13488 -70.99840 4061 ft 213 kts 310°
2026-04-19 04:08 42.14491 -71.01310 3917 ft 213 kts 310°
2026-04-19 04:08 42.15479 -71.02757 3756 ft 205 kts 311°
2026-04-19 04:08 42.16425 -71.04144 3581 ft 198 kts 310°
2026-04-19 04:08 42.17350 -71.05502 3334 ft 195 kts 311°
2026-04-19 04:09 42.18267 -71.06853 3062 ft 195 kts 310°
2026-04-19 04:09 42.19389 -71.07944 2759 ft 208 kts 342°
2026-04-19 04:09 42.20846 -71.08087 2535 ft 214 kts 12°
2026-04-19 04:09 42.22244 -71.07422 2330 ft 213 kts 24°
2026-04-19 04:10 42.23636 -71.06711 2132 ft 214 kts 23°
2026-04-19 04:10 42.25043 -71.06048 1925 ft 213 kts 24°
2026-04-19 04:10 42.26417 -71.05371 1699 ft 208 kts 22°
2026-04-19 04:10 42.27747 -71.04743 1460 ft 198 kts 22°
2026-04-19 04:11 42.29015 -71.04123 1240 ft 190 kts 23°
2026-04-19 04:11 42.30250 -71.03534 1118 ft 181 kts 21°
2026-04-19 04:11 42.31420 -71.02962 898 ft 178 kts 24°
2026-04-19 04:11 42.32444 -71.02477 669 ft 129 kts 23°
2026-04-19 04:12 42.33170 -71.02135 486 ft 97 kts 22°
2026-04-19 04:12 42.33784 -71.01845 355 ft 92 kts 24°
2026-04-19 04:12 42.34384 -71.01551 272 ft 91 kts 26°
2026-04-19 04:12 42.34974 -71.01254 167 ft 90 kts 26°
2026-04-19 04:13 42.35558 -71.00971 40 ft 88 kts 22°
2026-04-19 04:13 42.36036 -71.00732 23 ft 53 kts 19°
2026-04-19 04:13 42.36319 -71.00679 21 ft 22 kts 351°
2026-04-19 04:13 42.36374 -71.00693 21 ft 2 kts 349°
2026-04-19 04:14 42.36420 -71.00725 21 ft 5 kts 292°
2026-04-19 04:14 42.36433 -71.00771 21 ft 6 kts 291°
2026-04-19 04:14 42.36450 -71.00827 21 ft 7 kts 292°
2026-04-19 04:14 42.36473 -71.00903 21 ft 10 kts 291°
2026-04-19 04:15 42.36504 -71.01003 21 ft 13 kts 292°
2026-04-19 04:15 42.36539 -71.01124 21 ft 15 kts 292°
2026-04-19 04:15 42.36558 -71.01182 21 ft 5 kts 291°
2026-04-19 04:15 42.36574 -71.01237 21 ft 8 kts 292°
2026-04-19 04:16 42.36583 -71.01279 21 ft 0 kts 279°
2026-04-19 04:16 42.36549 -71.01315 21 ft 15 kts 209°
2026-04-19 04:16 42.36420 -71.01391 21 ft 22 kts 203°
2026-04-19 04:17 42.36411 -71.01510 21 ft 15 kts 300°
2026-04-19 04:17 42.36468 -71.01613 21 ft 12 kts 353°
2026-04-19 04:17 42.36516 -71.01562 21 ft 4 kts 88°
2026-04-19 04:17 42.36509 -71.01543 21 ft 0 kts 184°
2026-04-19 04:18 42.36507 -71.01547 21 ft 1 kts 262°
2026-04-19 04:18 42.36508 -71.01549 21 ft 0 kts 301°